Home > Weather > Durham > Past weeks

Flag for USA Weather for the Past 2 Weeks in Durham, North Carolina, USA

Now
64 °F

Light rain. Mostly cloudy.


Feels Like: 64 °F
Forecast: 62 / 78 °F
Wind: No wind

Location: Raleigh-Durham International Airport

Current Time: May 3, 2016 at 6:40:25 AM

Latest Report: May 3, 2016 at 5:51 AM


Visibility: 7 mi

Pressure: 29.84 "Hg

Humidity: 97%

Dew Point: 63 °F

Location of DurhamLocation

Historic Weather in Durham — Graph

°F

Durham Temperature Yesterday

Maximum temperature yesterday: 83 °F (at 1:51 PM)
Minimum temperature yesterday: 66 °F (at 3:51 AM)
Average temperature yesterday: 72 °F

High & Low Weather Summary for the Past Weeks

 TemperatureHumidityPressure
High88 °F (Apr 19, 2:51 PM)100% (Apr 30, 6:55 AM)30.32 "Hg (Apr 30, 6:55 AM)
Low43 °F (Apr 18, 4:51 AM)16% (Apr 19, 3:51 PM)29.76 "Hg (Apr 27, 5:51 PM)
Average68 °F68%30.01 "Hg
* Reported Apr 18 4:51 AM — May 3 4:51 AM, Durham, Weather by CustomWeather, © 2016

Note: Actual official high and low records may vary slightly from our data, if they occured in-between our weather recording intervals... More about our weather records

Advertising

Durham Weather History for the Previous 24 Hours

Scroll right to see more
 ConditionsComfort  
Time TempWeatherWind HumidityBarometerVisibility
4:51 AM
Tue, May 3
65 °FLight rain. Mostly cloudy.No wind94%29.85 "Hg9 mi
3:51 AM66 °FRain. Fog.No wind93%29.85 "Hg5 mi
2:51 AM67 °FLight rain. Mostly cloudy.3 mph93%29.86 "Hg10 mi
1:51 AM67 °FLight rain. Mostly cloudy.8 mph93%29.88 "Hg10 mi
1:04 AM66 °FPassing clouds.9 mph94%29.89 "Hg10 mi
12:51 AM67 °FPartly cloudy.7 mph90%29.88 "Hg10 mi
11:51 PM
Mon, May 2
68 °FPartly cloudy.12 mph84%29.88 "Hg10 mi
10:51 PM68 °FPassing clouds.15 mph82%29.90 "Hg10 mi
9:51 PM68 °FPassing clouds.12 mph82%29.91 "Hg10 mi
8:51 PM69 °FBroken clouds.9 mph87%29.90 "Hg10 mi
7:51 PM70 °FFog.6 mph93%29.88 "Hg6 mi
6:51 PM72 °FCloudy.5 mph81%29.91 "Hg10 mi
5:51 PM68 °FCloudy.No wind93%29.90 "Hg10 mi
4:59 PM72 °FStrong thunderstorms. Fog.24 mph73%29.94 "Hg2 mi
3:51 PM83 °FBroken clouds.8 mph57%29.90 "Hg10 mi
2:51 PM83 °FBroken clouds.7 mph59%29.92 "Hg10 mi
1:51 PM83 °FBroken clouds.8 mph63%29.96 "Hg10 mi
12:51 PM81 °FBroken clouds.8 mph67%29.98 "Hg10 mi
11:51 AM79 °FBroken clouds.10 mph69%30.00 "Hg10 mi
10:51 AM77 °FBroken clouds.12 mph74%30.01 "Hg10 mi
9:51 AM75 °FPartly sunny.15 mph76%30.02 "Hg10 mi
8:51 AM71 °FBroken clouds.8 mph84%30.02 "Hg10 mi
7:51 AM69 °FBroken clouds.8 mph90%30.00 "Hg10 mi
6:51 AM67 °FPartly cloudy.5 mph93%29.99 "Hg10 mi
Weather by CustomWeather, © 2016

See weather overviewHow to use our weather pages